Read MPEC 2002-W34
Read MPEC 2002-W36
M.P.E.C. 2002-W35 Issued 2002 Nov. 24, 04:25 UT
The Minor Planet Electronic Circulars contain information on unusual
minor planets and routine data on comets. They are published
on behalf of Commission 20 of the International Astronomical Union by the
Minor Planet Center, Smithsonian Astrophysical Observatory,
Cambridge, MA 02138, U.S.A.
Prepared using the Tamkin Foundation Computer Network
MPC@CFA.HARVARD.EDU
URL http://cfa-www.harvard.edu/iau/mpc.html ISSN 1523-6714
2002 WC1
Observations:
K02W01C* C2002 11 22.20484 01 44 25.36 +11 39 37.2 20.2 644
K02W01C C2002 11 22.22599 01 44 23.26 +11 39 37.5 20.1 644
K02W01C C2002 11 22.24691 01 44 21.23 +11 39 38.3 20.4 644
K02W01C C2002 11 23.21227 01 42 53.33 +11 40 19.2 19.5 R 673
K02W01C C2002 11 23.21644 01 42 53.01 +11 40 19.3 673
K02W01C C2002 11 23.22951 01 42 51.73 +11 40 19.5 673
K02W01C C2002 11 23.74957 01 42 05.52 +11 40 42.7 046
K02W01C C2002 11 23.75303 01 42 05.23 +11 40 40.9 046
K02W01C C2002 11 23.75954 01 42 04.75 +11 40 43.1 046
K02W01C C2002 11 23.77688 01 42 03.05 +11 40 43.6 557
K02W01C C2002 11 23.78061 01 42 02.61 +11 40 43.8 557
K02W01C C2002 11 23.78248 01 42 02.54 +11 40 43.9 557
K02W01C C2002 11 23.78620 01 42 02.31 +11 40 43.7 557
K02W01C C2002 11 24.13090 01 41 31.73 +11 41 09.6 19.0 R 673
K02W01C C2002 11 24.13507 01 41 31.33 +11 41 10.0 673
K02W01C C2002 11 24.14491 01 41 30.46 +11 41 10.7 673
K02W01C C2002 11 24.14977 01 41 29.82 +11 41 11.2 673
Observer details:
046 Klet. Observers J. Ticha, M. Tichy. 0.57-m f/5.2 reflector + CCD.
557 Ondrejov. Observer L. Sarounova. 0.65-m f/3.6 reflector + CCD.
644 Palomar Mountain/NEAT. Observers E. F. Helin, S. Pravdo, K. Lawrence,
M. Hicks, R. Thicksten. 1.2-m Schmidt + CCD.
673 Table Mountain Observatory, Wrightwood. Observer J. Young.
0.61-m reflector + CCD.
Orbital elements:
2002 WC1
Epoch 2002 Nov. 22.0 TT = JDT 2452600.5 MPC
M 338.75796 (2000.0) P Q
n 0.28152250 Peri. 74.46845 -0.51370453 -0.85660000
a 2.3056532 Node 46.54651 +0.75939765 -0.48022354
e 0.5447227 Incl. 3.82417 +0.39927793 -0.18873738
P 3.50 H 19.6 G 0.15
From 16 observations 2002 Nov. 22-24.
Ephemeris:
2002 WC1 a,e,i = 2.31, 0.54, 4 q = 1.0497
Date TT R. A. (2000) Decl. Delta r Elong. Phase V
2002 11 22 01 44.74 +11 39.6 0.431 1.375 149.0 21.7 19.5
2002 12 02 01 31.15 +11 58.7 0.405 1.308 135.9 31.7 19.6
2002 12 12 01 22.86 +12 53.1 0.387 1.244 124.1 40.9 19.6
2002 12 22 01 21.36 +14 30.5 0.372 1.186 114.2 49.2 19.7
2003 01 01 01 27.16 +16 53.6 0.357 1.136 106.2 56.2 19.7
2003 01 11 01 40.74 +20 04.1 0.339 1.095 100.2 62.1 19.7
2003 01 21 02 02.91 +24 01.2 0.318 1.067 96.3 66.4 19.6
2003 01 31 02 35.58 +28 38.0 0.296 1.052 94.8 69.0 19.5
2003 02 10 03 22.45 +33 32.4 0.275 1.051 95.9 69.0 19.3
2003 02 20 04 27.44 +37 42.6 0.261 1.065 99.9 66.1 19.2
2003 03 02 05 48.93 +39 19.9 0.260 1.092 106.2 60.6 19.0
2003 03 12 07 13.22 +37 08.3 0.277 1.132 113.2 53.8 19.0
2003 03 22 08 24.12 +32 03.4 0.314 1.181 119.0 47.5 19.2
2003 04 01 09 17.49 +26 05.4 0.371 1.238 122.4 42.9 19.6
2003 04 11 09 57.42 +20 29.5 0.446 1.302 123.4 40.0 20.0
2003 04 21 10 28.57 +15 38.3 0.536 1.369 122.5 38.3 20.5
2003 05 01 10 54.19 +11 30.3 0.640 1.440 120.2 37.2 20.9
2003 05 11 11 16.43 +07 56.9 0.757 1.512 117.0 36.5 21.4
2003 05 21 11 36.53 +04 50.0 0.885 1.585 113.2 35.9 21.8
Brian G. Marsden (C) Copyright 2002 MPC M.P.E.C. 2002-W35
Read MPEC 2002-W34
Read MPEC 2002-W36
Our Web policy. Index to the CBAT/MPC/ICQ pages.